Miscellaneous Local Product
Issued by NWS North Platte, NE

Home | Current Version | Previous Version | Text Only | Print | Product List | Glossary On
Versions: 1 2 3 4 5 6 7 8 9 10 11 12 13 14 15 16 17 18 19 20 21 22 23 24 25 26 27 28 29 30 31 32 33 34 35 36 37 38 39 40 41 42 43 44 45 46 47 48 49 50
000
AXUS43 KLBF 260710
MISLBF


WESTERN AND NORTH CENTRAL NEBRASKA HOURLY WEATHER ROUNDUP
NATIONAL WEATHER SERVICE NORTH PLATTE NE
200 AM CDT SUN APR 26 2015

***STATIONS NOT REPORTING VARIABLES SUCH AS SKY/WEATHER OR
PRESSURE ARE PROVIDED BY THE NEBRASKA DEPARTMENT OF
ROADS...RAWS...AND APRS NETWORKS...AND ARE NOT UNDER
NATIONAL WEATHER SERVICE QUALITY CONTROL***

...OBSERVATIONS IN AND NEAR THE EASTERN PANHANDLE OF NEBRASKA...

CITY           SKY/WX    TMP DP  RH WIND       PRES   REMARKS
PINE RIDGE     MOCLDY    47  44  90 E9        29.87R
CHADRON        FOG       49  48  97 NE7       29.86R VSB 1/2
ALLIANCE       CLOUDY    50  47  89 S13       29.84R
SIDNEY         RAIN      47  45  93 E14       29.85F FOG
WHITECLAY        N/A     45  43  93 E3          N/A
CRESCENT LAKE    N/A     49  48  96 S12G20      N/A
BIG SPRINGS      N/A     49  47  93 SE7         N/A
$$

...OBSERVATIONS IN NORTH CENTRAL NEBRASKA...

CITY           SKY/WX    TMP DP  RH WIND       PRES   REMARKS
VALENTINE      CLOUDY    51  44  77 SE7       29.90R
THEDFORD       CLOUDY    49  44  82 SE13      29.90R
AINSWORTH      MOCLDY    46  44  91 SE12      29.90R
O`NEILL        CLOUDY    50  44  79 E6        29.93R
ORD            CLOUDY    47  40  76 E12       29.90R
BROKEN BOW     CLOUDY    48  43  82 E10       29.89S
BROWNLEE         N/A     50  47  91 SE14        N/A
VALENTINE NWR    N/A     47  44  89 SE6         N/A
SPRINGVIEW       N/A     49  43  81 SE8         N/A
HALSEY           N/A     47  43  85 SE9G17      N/A
BREWSTER         N/A     44  42  95 SE6         N/A
ROSE             N/A     42  42  99 E6          N/A
NEWPORT          N/A     47  44  88 S7          N/A
SARGENT          N/A     46  44  92 E3          N/A
COMSTOCK         N/A     49  46  88 E10         N/A
EWING            N/A     48  41  76 E5          N/A
$$

...OBSERVATIONS IN SOUTHWEST NEBRASKA AND FAR NORTHEAST COLORADO...

CITY           SKY/WX    TMP DP  RH WIND       PRES   REMARKS
WRAY           LGT RAIN N/A N/A N/A E12G20    29.85S
HOLYOKE        RAIN      46  45  93 NE10      29.86F
IMPERIAL       CLOUDY    47  44  90 E12       29.87S FOG
OGALLALA       CLOUDY    48  46  91 S3        29.90R FOG
MCCOOK         CLOUDY    47  45  93 E14       29.86R FOG
LEXINGTON      CLOUDY    47  44  87 E15       29.89S
PAXTON           N/A     49  46  89 NE12        N/A
SUTHERLAND       N/A     43  40  89 E10         N/A
BRADY            N/A     46  41  84 MISG        N/A
GOTHENBURG       N/A     47  42  82 E12         N/A
CALLAWAY         N/A     46  44  91 E12         N/A
$$

...NORTH PLATTE AREA...

CITY           SKY/WX    TMP DP  RH WIND       PRES   REMARKS
$$

...SOME WEATHER OBSERVATIONS FROM AROUND THE REGION...

CITY           SKY/WX    TMP DP  RH WIND       PRES   REMARKS
DENVER         CLOUDY    46  42  86 E7        29.79R
LARAMIE        RAIN      40  37  89 S6        29.82S
CHEYENNE       RAIN      42  39  89 E12       29.82R FOG
SCOTTSBLUFF    LGT RAIN  50  47  89 E14       29.82F
RAPID CITY     CLOUDY    45  41  86 N21       29.87S
PIERRE         CLOUDY    52  44  74 SE12      29.89S
WINNER         FAIR      48  41  76 SE9       29.89R
SIOUX FALLS    PTCLDY    42  37  82 E5        29.96S
OMAHA          PTCLDY    47  41  80 NE6       29.93R
GRAND ISLAND   CLOUDY    47  44  90 E10       29.92R
KANSAS CITY    DRIZZLE   48  47  96 NE10      29.84S
WICHITA        CLOUDY    54  49  83 NE16      29.78F
HAYS           CLOUDY    48  43  81 E14       29.82S
LIBERAL        CLEAR     55  46  71 E17G23    29.73S
GOODLAND       FOG       47  47 100 E18G28    29.82R VSB 1/4
$$



USA.gov is the U.S. government's official web portal to all federal, state and local government web resources and services.